Location: Palo Alto
(37.4420°N, 122.1420°W)
Time: 18:42:42
(UTC-08:00)

ISS - All Passes

Search period start: 09 February 2016 00:00
Search period end: 19 February 2016 00:00
Orbit: 398 x 408 km, 51.6° (Epoch: 09 February)

Date Brightness Start Highest point End Pass type
(mag) Time Alt. Az. Time Alt. Az. Time Alt. Az.
09 Feb - 14:48:33 10° S 14:51:02 20° SE 14:53:29 10° E daylight
09 Feb - 16:24:17 10° WSW 16:27:18 35° NW 16:30:20 10° NE daylight
09 Feb - 21:17:42 10° NNW 21:19:55 17° NNE 21:22:07 10° ENE night (unlit)
09 Feb - 22:53:25 10° NW 22:56:38 66° SW 22:59:50 10° SE night (unlit)
10 Feb - 15:31:23 10° WSW 15:34:37 70° NW 15:37:51 10° NE daylight
10 Feb - 17:09:59 10° NW 17:11:33 13° NNW 17:13:08 10° N daylight
10 Feb - 20:25:43 10° N 20:27:00 12° NNE 20:28:17 10° NE visible
10 Feb - 22:00:48 10° NW 22:04:01 58° NE 22:07:13 10° ESE night (unlit)
10 Feb - 23:38:49 10° WSW 23:40:05 12° SW 23:41:20 10° SSW night (unlit)
11 Feb - 14:38:49 10° SW 14:41:59 54° SE 14:45:10 10° ENE daylight
11 Feb - 16:16:15 10° WNW 16:18:39 19° NNW 16:21:01 10° NNE daylight
11 Feb - 21:08:20 10° NNW 21:11:16 30° NNE 21:14:11 10° E night (unlit)
11 Feb - 22:44:57 10° WNW 22:47:37 24° SW 22:50:17 10° S night (unlit)
12 Feb - 13:46:42 10° S 13:49:25 25° SE 13:52:10 10° ENE daylight
12 Feb - 15:22:53 10° W 15:25:47 29° NNW 15:28:42 10° NNE daylight
12 Feb - 20:16:00 10° NNW 20:18:25 19° NNE 20:20:49 10° ENE visible
12 Feb - 21:51:54 10° WNW 21:55:03 51° SW 21:58:12 10° SSE night (unlit)
13 Feb - 12:55:28 10° SSE 12:56:55 12° SE 12:58:22 10° E daylight
13 Feb - 14:29:48 10° WSW 14:33:00 55° NW 14:36:13 10° NE daylight
13 Feb - 16:08:48 10° NW 16:10:02 12° NNW 16:11:15 10° N daylight
13 Feb - 19:23:50 10° N 19:25:27 13° NNE 19:27:05 10° NE visible
13 Feb - 20:59:08 10° NW 21:02:22 73° NE 21:05:36 10° SE night (unlit)
14 Feb - 13:37:03 10° SW 13:40:17 69° SE 13:43:30 10° NE daylight
14 Feb - 15:14:50 10° WNW 15:17:01 16° NNW 15:19:11 10° NNE daylight
14 Feb - 20:06:33 10° NW 20:09:36 36° NE 20:12:37 10° ESE visible
14 Feb - 21:43:27 10° W 21:45:51 19° SW 21:48:15 10° S night (unlit)
15 Feb - 12:44:41 10° SSW 12:47:37 31° SE 12:50:32 10° ENE daylight
15 Feb - 14:21:16 10° W 14:24:03 25° NNW 14:26:50 10° NNE daylight
15 Feb - 19:14:06 10° NNW 19:16:41 22° NNE 19:19:17 10° E visible
15 Feb - 20:50:10 10° WNW 20:53:14 40° SW 20:56:17 10° SSE visible
16 Feb - 11:53:00 10° SSE 11:55:01 15° SE 11:57:01 10° E daylight
16 Feb - 13:28:01 10° WSW 13:31:10 45° NW 13:34:19 10° NE daylight
16 Feb - 15:07:30 10° NNW 15:08:16 11° NNW 15:09:03 10° N daylight
16 Feb - 18:21:47 10° NNW 18:23:41 14° NNE 18:25:35 10° ENE visible
16 Feb - 19:57:16 10° NW 20:00:31 89° SW 20:03:45 10° SE visible
17 Feb - 12:35:06 10° SW 12:38:20 87° SE 12:41:37 10° NE daylight
17 Feb - 14:13:13 10° WNW 14:15:10 15° NNW 14:17:07 10° NNE daylight
17 Feb - 17:29:55 10° N 17:30:34 10° NNE 17:31:13 10° NNE daylight
17 Feb - 19:04:34 10° NW 19:07:41 43° NE 19:10:48 10° ESE visible
17 Feb - 20:41:49 10° W 20:43:50 16° SW 20:45:53 10° SSW visible
18 Feb - 11:42:31 10° SSW 11:45:35 39° SE 11:48:39 10° ENE daylight
18 Feb - 13:19:28 10° W 13:22:07 22° NNW 13:24:45 10° NNE daylight
18 Feb - 18:11:59 10° NNW 18:14:43 25° NNE 18:17:28 10° E visible
18 Feb - 19:48:15 10° WNW 19:51:11 32° SW 19:54:06 10° SSE visible
